Location: Unspecified
(44.0704°N, 88.6889°W)
Time: 13:36:39
(UTC+01:00)

Okean 3 - Pass Details

Date: 10 October 2020
Orbit: 575 x 602 km, 82.5° (Epoch: 26 October)

Event Time Altitude Azimuth Distance (km) Brightness Sun altitude
Exits shadow 11:39:21 33° 6° (N) 1,013 4.8 -26.5°
Drops below altitude 10° 11:41:42 10° 8° (N) 1,922 6.3 -26.1°
Sets 11:43:54 0° 9° (N) 2,823 7.3 -25.7°
